Tracking 21470 objects as of 25-Sep-2020
HD Live streaming from Space Station
objects crossing your sky now

SL-24 DEB

Track SL-24 DEB now!
10-day predictions


NORAD ID: 36601
Int'l Code: 2010-028D
Perigee: 726.3 km
Apogee: 749.1 km
Inclination: 98.4 °
Period: 99.4 minutes
Semi major axis: 7108 km
RCS: 5.771 m2 (large)
Launch date: June 15, 2010
Source: Commonwealth of Independent States (former USSR) (CIS)
Launch site: Orenburg, Russia (OREN)

Note: This is SATELLITE DEBRIS
aabbcc
Your satellite tracking list
Your tracking list is empty




NASA's NSSDC Master Catalog

Two Line Element Set (TLE):
1 36601U 10028D   20268.49190598  .00000044  00000-0  23612-4 0  9996
2 36601  98.3908  95.3130 0016020 289.3905  70.5557 14.48501230543055
Source of the keplerian elements: AFSPC